Regional Weather Roundup
Issued by NWS

Home | Current Version | Previous Version | Graphics & Text | Print | Product List | Glossary On
Versions: 1 2 3 4 5 6 7 8 9 10 11 12 13 14 15 16 17 18 19 20 21 22 23 24 25 26 27 28 29 30 31 32 33 34 35 36 37 38 39 40 41 42 43 44 45 46 47 48 49
482
ASUS45 KBOU 071307
RWRCO

WEATHER ROUNDUP FOR COLORADO
NATIONAL WEATHER SERVICE DENVER/BOULDER CO
600 AM MST SUN FEB 07 2016

NOTE: "FAIR" INDICATES FEW OR NO CLOUDS BELOW 12000 FEET WITH NO
SIGNIFICANT WEATHER AND/OR OBSTRUCTIONS TO VISIBILITY.

COZ001>005-013-030-031-071400-
...NORTHWEST COLORADO...

CITY           SKY/WX    TMP DP  RH WIND       PRES   REMARKS
CRAIG          CLOUDY     1  -4  79 CALM      30.41R
HAYDEN         CLOUDY     9   3  78 SW8       30.37R WCI  -4
MEEKER         CLOUDY     8   4  83 NE6       30.40R WCI  -2
MOUNT WERNER   NOT AVBL
STEAMBOAT SPGS CLOUDY    13   9  83 CALM      30.37R
WALDEN         CLEAR     23  12  63 W16       30.27R WCI  10
$$

COZ006>008-011-071400-
...WEST CENTRAL VALLEYS...

CITY           SKY/WX    TMP DP  RH WIND       PRES   REMARKS
GRAND JUNCTION CLOUDY    12   9  87 CALM      30.49R
MONTROSE       CLOUDY    14   8  77 E7        30.47F WCI   4
EAGLE          CLOUDY     7   3  85 SE5       30.44S WCI  -2
RIFLE          CLOUDY     9   5  84 CALM      30.49R
DELTA          CLOUDY    17  14  88 CALM      30.49S
NUCLA          NOT AVBL
$$

COZ017>023-064>068-071400-
...SOUTHWEST COLORADO...

CITY           SKY/WX    TMP DP  RH WIND       PRES   REMARKS
DURANGO        CLOUDY     7   3  84 N6        30.36R WCI  -3
CORTEZ         CLOUDY    12   7  80 NE9       30.40R WCI   0
PAGOSA SPRINGS CLOUDY   N/A N/A N/A CALM      30.34S
TELLURIDE      CLOUDY    23  12  63 CALM      30.43R
WOLF CREEK PAS CLOUDY    21   5  49 N7        30.38S WCI  13
$$

COZ009-010-012-014-032>034-037-058>063-071400-
...CENTRAL COLORADO...

CITY           SKY/WX    TMP DP  RH WIND       PRES   REMARKS
ASPEN          CLOUDY     8   4  83 S6        30.39R WCI  -2
BUENA VISTA    CLOUDY    32  11  41 NW22G29   30.24S WCI  19
COPPER MTN     CLOUDY    19   9  63 W31G41    30.27F WCI   0
BERTHOUD PASS  LGT SNOW   9   0  66 NW32G45   30.23R WCI -15
COTTONWOOD PAS CLOUDY    32   5  32 W25G47    30.21F WCI  19
GUNNISON       CLOUDY   -15 -27  53 CALM      30.48S
KREMMLING      CLOUDY    -6 -11  77 CALM      30.35S
LEADVILLE      CLOUDY    20   6  55 N13       30.31R WCI   7
MONARCH PASS   CLOUDY    12   9  85 MISG      30.38S
SALIDA         NOT AVBL
SUNLIGHT       CLOUDY    18  14  86 CALM        N/A
WILKERSON PASS CLOUDY    21  -2  35 NW13G29   30.27R WCI   9
$$

COZ069>075-071400-
...SAN LUIS VALLEY/SANGRE DE CRISTO MOUNTAINS...

CITY           SKY/WX    TMP DP  RH WIND       PRES   REMARKS
ALAMOSA        CLOUDY    -2  -7  79 W3        30.32R
LA VETA PASS   CLOUDY    21   9  58 MISG      30.28R
SAGUACHE       CLOUDY    10   3  72 E5        30.31S WCI   2
$$

COZ035-036-038>040-071400-
...NORTHERN COLORADO FRONT RANGE...

CITY           SKY/WX    TMP DP  RH WIND       PRES   REMARKS
DENVER INTL AP CLOUDY    38  14  37 W13       30.18R
DMNS CITY PARK   N/A     43  12  28 NW23      30.19R
AURORA         PTCLDY    41  13  32 W25G36    30.17S
FRONT RANGE AP NOT AVBL
ERIE MUNI ARPT CLOUDY    42  10  27 CALM      30.17R
BOULDER MUN AP CLOUDY    43  14  31 W20G35    30.16R
CENTENNIAL     CLOUDY    38  13  35 NW17      30.17R
BROOMFIELD     PTCLDY    41  16  36 W18G26    30.18R
FORT COLLINS   CLEAR     39  16  38 NW22G31   30.17R
LONGMONT       CLEAR     41  12  31 NW14      30.17R
$$

COZ041-046-047-076>085-087-088-071400-
...PIKES PEAK/PALMER DIVIDE AND SOUTHERN FOOTHILLS...

CITY           SKY/WX    TMP DP  RH WIND       PRES   REMARKS
COLO. SPRINGS  CLOUDY    31   7  36 VRB6      30.19R WCI  25
A. F. ACADEMY  CLOUDY    24   5  44 VRB7      30.17R WCI  16
SCHRIEVER AFB  FAIR      31   7  36 N13       30.19R WCI  21
ELLICOTT       NOT AVBL
FALCON         CLOUDY    32   2  28 NW10      30.19S WCI  24
FORT CARSON    CLOUDY    28  15  57 S8        30.20R WCI  20
LIMON          CLOUDY    15  11  83 N7        30.19R WCI   5
MONUMENT HILL  CLOUDY    27   3  36 W12G18    30.20R WCI  16
TRINIDAD       CLOUDY    36  16  44 NW9       30.18R
$$

COZ042>045-048>051-090-091-071400-
...NORTHEAST COLORADO...

CITY           SKY/WX    TMP DP  RH WIND       PRES   REMARKS
GREELEY ARPT   CLOUDY    25   9  50 SE10      30.19R WCI  15
AKRON          CLEAR     21  15  78 N15       30.18R WCI   8
BURLINGTON     CLOUDY    23  15  71 NW9       30.18R WCI  13
WRAY           CLEAR     27  17  66 NW9       30.18R WCI  17
STERLING       CLEAR     21  14  73 W6        30.21R WCI  14
HOLYOKE        CLEAR     32  19  59 NW14      30.18R WCI  22
FORT MORGAN    CLEAR     27  15  62 NW5       30.21R WCI  21
$$

COZ086-089-092>099-071400-
...SOUTHEAST COLORADO...

CITY           SKY/WX    TMP DP  RH WIND       PRES   REMARKS
PUEBLO         CLOUDY    31  19  61 CALM      30.21R
LA JUNTA       CLOUDY    29  21  72 CALM      30.22R
LAMAR          CLEAR     24  22  91 S9        30.20R WCI  14
SPRINGFIELD      N/A     27  21  78 N7        30.20R WCI  19
$$




USA.gov is the U.S. government's official web portal to all federal, state and local government web resources and services.